User: anonymous   Login
Location: Unspecified
(50.0959°N, 14.3921°E)
Time: 03:00:14
(UTC+02:00)
Language:

GALEX - Orbit

View from above orbital plane
View from above orbital plane
View from above satellite
View from above satellite

Ground track
Ground track

The orbit data is extracted from the following two-line orbital elements,

1 27783U 03017A   19197.20013791  .00000126  00000-0  36962-5 0  9998
2 27783  28.9976 129.6611 0003571 328.1311  31.9061 14.62157233866601
Epoch (UTC): 16 July 2019 04:48:11
Eccentricity: 0.0003571
inclination: 28.9976°
perigee height: 683 km
apogee height: 689 km
right ascension of ascending node: 129.6611°
argument of perigee: 328.1311°
revolutions per day: 14.62157233
mean anomaly at epoch: 31.9061°
orbit number at epoch: 86660

The dashed part of the orbit path shows where the satellite is in the earth's shadow,  

DLR